カタログに戻る

THOR ABLESTAR DEB

運用中LEO
NORAD 119·DEBRIS·🇺🇸 United States

打ち上げ Jun 29, 1961 から Cape Canaveral Space Force Station

Loading…

次のパス (今後24時間)

TLE

最新Source: Space-Track

元期: Sep 5, 2026, 06:00 UTC

1   119U 61015D   26248.25006118  .00000301  00000-0  14852-3 0  9996
2   119  66.7267 180.2219 0103278 205.2331 154.3703 14.27416742369747

AllMySatでTHOR ABLESTAR DEBをリアルタイム追跡

Download on the App Store